Weather WX

World > North America > United States > Ohio

Bellefontaine, Ohio Regional Weather

Lat: 40.36N, Lon: 83.76W
Wx Zone: OHZ044
Warning FLW WEATHER ALERT - EXCESSIVE HEAT WARNING (More Info. Click Here) Warning
Feedback

Bellefontaine, OH Regional Weather

Expires:201907181400;;251728
ASUS41 KCLE 181312
RWRCLE
OHIO REGIONAL WEATHER ROUNDUP
NATIONAL WEATHER SERVICE WILMINGTON, OH
900 AM EDT THU JUL 18 2019

NOTE: "FAIR" INDICATES FEW OR NO CLOUDS BELOW 12,000 FEET WITH NO
SIGNIFICANT WEATHER AND/OR OBSTRUCTIONS TO VISIBILITY.


OHZ001>008-015>018-024>027-034-035-043-044-181400-
   NORTHWEST OHIO
  
CITY           SKY/WX    TMP DP  RH WIND       PRES   REMARKS
DEFIANCE       FAIR      80  74  81 S6        29.96S                  
FINDLAY        FAIR      80  74  81 S8        29.97R                  
TOLEDO EXPRESS FAIR      80  72  76 S6        29.95S                  
TOLEDO EXEC    FAIR      79  71  76 S7        29.97R                  
LIMA           FAIR      78  73  84 SW7       29.99R                  
$$
 

SKY/WX - Weather  TMP - Temperature  DP - Dew Point  RH - Relative Humidity
WIND - Wind Direction/Speed PRES - Barometric Pressure VSB - Visibility
WCI - Wind Chill Index E13G22 Wind - East Wind 13 mph/Gusts of 22 mph